| time (UTC) | temp F | wind direction | speed MPH | gust MPH | rain 1hr in | rain 24hr in | rain mn in | humidity % | barometer mb |
| 20260504003526 | 66 | 258 | 1.0 | 9.0 | 0.00 | 0.00 | 0.00 | 30 | 1002.8 |
| 20260504003026 | 66 | 259 | 2.0 | 9.0 | 0.00 | 0.00 | 0.00 | 29 | 1002.9 |
| 20260504002526 | 67 | 247 | 4.0 | 8.0 | 0.00 | 0.00 | 0.00 | 28 | 1002.9 |
| 20260504002026 | 67 | 249 | 4.0 | 8.0 | 0.00 | 0.00 | 0.00 | 29 | 1003.0 |
| 20260504001526 | 67 | 263 | 5.0 | 9.0 | 0.00 | 0.00 | 0.00 | 28 | 1003.1 |
| 20260504001026 | 68 | 267 | 2.0 | 12.0 | 0.00 | 0.00 | 0.00 | 28 | 1003.1 |
| 20260504000529 | 68 | 261 | 5.0 | 12.0 | 0.00 | 0.00 | 0.00 | 26 | 1003.0 |
| 20260504000026 | 68 | 242 | 4.0 | 12.0 | 0.00 | 0.00 | 0.00 | 26 | 1003.0 |
| 20260503235027 | 69 | 259 | 6.0 | 10.0 | 0.00 | 0.00 | 0.00 | 24 | 1003.0 |
| 20260503234527 | 68 | 227 | 3.0 | 10.0 | 0.00 | 0.00 | 0.00 | 27 | 1003.0 |
| 20260503234028 | 69 | 275 | 3.0 | 12.0 | 0.00 | 0.00 | 0.00 | 26 | 1003.0 |
| 20260503233524 | 69 | 271 | 3.0 | 13.0 | 0.00 | 0.00 | 0.00 | 25 | 1003.1 |
| 20260503233024 | 69 | 265 | 4.0 | 12.0 | 0.00 | 0.00 | 0.00 | 25 | 1003.2 |
| 20260503232524 | 69 | 299 | 4.0 | 13.0 | 0.00 | 0.00 | 0.00 | 24 | 1003.2 |
| 20260503232027 | 69 | 253 | 5.0 | 13.0 | 0.00 | 0.00 | 0.00 | 25 | 1003.2 |
| 20260503231524 | 69 | 284 | 5.0 | 11.0 | 0.00 | 0.00 | 0.00 | 25 | 1003.2 |
| 20260503231024 | 69 | 298 | 5.0 | 15.0 | 0.00 | 0.00 | 0.00 | 25 | 1003.2 |
| 20260503230523 | 70 | 263 | 7.0 | 15.0 | 0.00 | 0.00 | 0.00 | 25 | 1003.2 |
| 20260503230024 | 69 | 253 | 7.0 | 15.0 | 0.00 | 0.00 | 0.00 | 26 | 1003.3 |
| 20260503225024 | 70 | 301 | 6.0 | 14.0 | 0.00 | 0.00 | 0.00 | 24 | 1003.3 |
| 20260503224524 | 70 | 271 | 2.0 | 9.0 | 0.00 | 0.00 | 0.00 | 23 | 1003.3 |
| 20260503224027 | 70 | 291 | 2.0 | 12.0 | 0.00 | 0.00 | 0.00 | 22 | 1003.3 |
| 20260503223523 | 70 | 292 | 5.0 | 12.0 | 0.00 | 0.00 | 0.00 | 22 | 1003.4 |
| 20260503223023 | 70 | 286 | 4.0 | 13.0 | 0.00 | 0.00 | 0.00 | 23 | 1003.4 |
| 20260503222522 | 70 | 261 | 7.0 | 13.0 | 0.00 | 0.00 | 0.00 | 22 | 1003.4 |
| 20260503222022 | 70 | 291 | 4.0 | 11.0 | 0.00 | 0.00 | 0.00 | 23 | 1003.5 |
| 20260503221522 | 70 | 261 | 5.0 | 14.0 | 0.00 | 0.00 | 0.00 | 25 | 1003.4 |
| 20260503221023 | 70 | 290 | 6.0 | 14.0 | 0.00 | 0.00 | 0.00 | 24 | 1003.5 |
| 20260503220522 | 70 | 281 | 5.0 | 18.0 | 0.00 | 0.00 | 0.00 | 26 | 1003.5 |
| 20260503220022 | 70 | 270 | 6.0 | 18.0 | 0.00 | 0.00 | 0.00 | 25 | 1003.4 |
| 20260503215021 | 70 | 273 | 7.0 | 13.0 | 0.00 | 0.00 | 0.00 | 24 | 1003.5 |
| 20260503214521 | 70 | 286 | 5.0 | 11.0 | 0.00 | 0.00 | 0.00 | 24 | 1003.5 |
| 20260503214021 | 71 | 278 | 6.0 | 11.0 | 0.00 | 0.00 | 0.00 | 23 | 1003.5 |
| 20260503213520 | 70 | 292 | 3.0 | 12.0 | 0.00 | 0.00 | 0.00 | 23 | 1003.5 |
| 20260503213019 | 70 | 289 | 6.0 | 16.0 | 0.00 | 0.00 | 0.00 | 23 | 1003.5 |
| 20260503212519 | 70 | 286 | 5.0 | 16.0 | 0.00 | 0.00 | 0.00 | 22 | 1003.7 |
| 20260503212018 | 70 | 294 | 6.0 | 12.0 | 0.00 | 0.00 | 0.00 | 23 | 1003.7 |
| 20260503211518 | 70 | 278 | 5.0 | 17.0 | 0.00 | 0.00 | 0.00 | 24 | 1003.7 |
| 20260503211018 | 69 | 293 | 7.0 | 17.0 | 0.00 | 0.00 | 0.00 | 24 | 1003.7 |
| 20260503210522 | 69 | 284 | 6.0 | 16.0 | 0.00 | 0.00 | 0.00 | 23 | 1003.7 |
| 20260503210017 | 70 | 278 | 7.0 | 16.0 | 0.00 | 0.00 | 0.00 | 24 | 1003.6 |
| 20260503205019 | 70 | 280 | 5.0 | 13.0 | 0.00 | 0.00 | 0.00 | 25 | 1003.8 |
| 20260503204518 | 70 | 294 | 7.0 | 14.0 | 0.00 | 0.00 | 0.00 | 25 | 1003.8 |
| 20260503204018 | 70 | 285 | 7.0 | 19.0 | 0.00 | 0.00 | 0.00 | 24 | 1003.9 |
| 20260503203516 | 69 | 295 | 4.0 | 20.0 | 0.00 | 0.00 | 0.00 | 25 | 1003.9 |
| 20260503203035 | 70 | 298 | 12.0 | 20.0 | 0.00 | 0.00 | 0.00 | 25 | 1004.0 |
| 20260503202515 | 70 | 300 | 4.0 | 13.0 | 0.00 | 0.00 | 0.00 | 27 | 1004.0 |
| 20260503202015 | 70 | 293 | 5.0 | 14.0 | 0.00 | 0.00 | 0.00 | 26 | 1004.0 |
| 20260503201514 | 69 | 290 | 5.0 | 16.0 | 0.00 | 0.00 | 0.00 | 27 | 1004.1 |
| 20260503201013 | 69 | 279 | 7.0 | 17.0 | 0.00 | 0.00 | 0.00 | 26 | 1004.2 |
| 20260503200513 | 69 | 261 | 9.0 | 17.0 | 0.00 | 0.00 | 0.00 | 28 | 1004.2 |
| 20260503200013 | 69 | 292 | 6.0 | 14.0 | 0.00 | 0.00 | 0.00 | 30 | 1004.3 |
| 20260503195013 | 69 | 256 | 3.0 | 14.0 | 0.00 | 0.00 | 0.00 | 31 | 1004.3 |
| 20260503194531 | 69 | 242 | 6.0 | 20.0 | 0.00 | 0.00 | 0.00 | 29 | 1004.4 |
| 20260503194013 | 70 | 279 | 9.0 | 20.0 | 0.00 | 0.00 | 0.00 | 31 | 1004.3 |
| 20260503193513 | 69 | 287 | 5.0 | 13.0 | 0.00 | 0.00 | 0.00 | 31 | 1004.3 |
| 20260503193014 | 70 | 277 | 7.0 | 16.0 | 0.00 | 0.00 | 0.00 | 31 | 1004.4 |
| 20260503192511 | 70 | 282 | 6.0 | 13.0 | 0.00 | 0.00 | 0.00 | 31 | 1004.4 |
| 20260503192012 | 70 | 293 | 6.0 | 13.0 | 0.00 | 0.00 | 0.00 | 31 | 1004.3 |
| 20260503191511 | 70 | 271 | 6.0 | 11.0 | 0.00 | 0.00 | 0.00 | 33 | 1004.3 |
| 20260503191011 | 70 | 298 | 3.0 | 15.0 | 0.00 | 0.00 | 0.00 | 34 | 1004.2 |
| 20260503190512 | 70 | 279 | 5.0 | 15.0 | 0.00 | 0.00 | 0.00 | 34 | 1004.3 |
| 20260503190011 | 70 | 274 | 7.0 | 14.0 | 0.00 | 0.00 | 0.00 | 35 | 1004.3 |
| 20260503185012 | 70 | 299 | 3.0 | 14.0 | 0.00 | 0.00 | 0.00 | 32 | 1004.5 |
| 20260503184517 | 69 | 332 | 5.0 | 14.0 | 0.00 | 0.00 | 0.00 | 31 | 1004.5 |
| 20260503184008 | 69 | 297 | 4.0 | 16.0 | 0.00 | 0.00 | 0.00 | 32 | 1004.5 |
| 20260503183508 | 69 | 292 | 8.0 | 16.0 | 0.00 | 0.00 | 0.00 | 32 | 1004.6 |
| 20260503183008 | 69 | 291 | 5.0 | 15.0 | 0.00 | 0.00 | 0.00 | 34 | 1004.5 |
| 20260503182507 | 69 | 279 | 6.0 | 14.0 | 0.00 | 0.00 | 0.00 | 38 | 1004.5 |
| 20260503182006 | 69 | 255 | 6.0 | 15.0 | 0.00 | 0.00 | 0.00 | 38 | 1004.5 |
| 20260503181506 | 68 | 249 | 7.0 | 15.0 | 0.00 | 0.00 | 0.00 | 37 | 1004.6 |
| 20260503181005 | 68 | 288 | 4.0 | 13.0 | 0.00 | 0.00 | 0.00 | 36 | 1004.7 |
| 20260503180505 | 68 | 291 | 5.0 | 11.0 | 0.00 | 0.00 | 0.00 | 37 | 1004.8 |
| 20260503180005 | 68 | 279 | 5.0 | 13.0 | 0.00 | 0.00 | 0.00 | 36 | 1004.7 |
| 20260503175005 | 68 | 292 | 6.0 | 12.0 | 0.00 | 0.00 | 0.00 | 35 | 1005.0 |
| 20260503174505 | 68 | 294 | 2.0 | 12.0 | 0.00 | 0.00 | 0.00 | 36 | 1005.0 |
| 20260503174005 | 67 | 272 | 5.0 | 16.0 | 0.00 | 0.00 | 0.00 | 37 | 1005.0 |
| 20260503173504 | 67 | 294 | 6.0 | 16.0 | 0.00 | 0.00 | 0.00 | 37 | 1005.0 |
| 20260503173004 | 67 | 296 | 7.0 | 14.0 | 0.00 | 0.00 | 0.00 | 36 | 1005.1 |
| 20260503172503 | 67 | 294 | 6.0 | 14.0 | 0.00 | 0.00 | 0.00 | 36 | 1005.1 |
| 20260503172001 | 68 | 317 | 3.0 | 10.0 | 0.00 | 0.00 | 0.00 | 35 | 1005.1 |
| 20260503171502 | 68 | 348 | 4.0 | 8.0 | 0.00 | 0.00 | 0.00 | 36 | 1005.1 |
| 20260503171100 | 68 | 273 | 2.0 | 14.0 | 0.00 | 0.00 | 0.00 | 36 | 1005.1 |
| 20260503170559 | 67 | 280 | 7.0 | 17.0 | 0.00 | 0.00 | 0.00 | 36 | 1005.1 |
| 20260503150532 | 62 | 9 | 2.0 | 8.0 | 0.00 | 0.00 | 0.00 | 46 | 1004.9 |
| 20260503131009 | 55 | 229 | 2.0 | 6.0 | 0.00 | 0.00 | 0.00 | 53 | 1004.7 |
| 20260503130513 | 55 | 229 | 2.0 | 5.0 | 0.00 | 0.00 | 0.00 | 53 | 1004.6 |
| 20260503110548 | 52 | 178 | 1.0 | 4.0 | 0.00 | 0.00 | 0.00 | 56 | 1004.0 |
| 20260503081545 | 56 | 225 | 4.0 | 14.0 | 0.00 | 0.00 | 0.00 | 54 | 1005.1 |
| 20260503081037 | 55 | 229 | 4.0 | 14.0 | 0.00 | 0.00 | 0.00 | 54 | 1005.1 |
| 20260503080538 | 55 | 213 | 4.0 | 10.0 | 0.00 | 0.00 | 0.00 | 55 | 1005.2 |
| 20260503072535 | 54 | 191 | 4.0 | 13.0 | 0.00 | 0.00 | 0.00 | 57 | 1006.0 |
| 20260503072033 | 54 | 192 | 3.0 | 10.0 | 0.00 | 0.00 | 0.00 | 57 | 1006.0 |
| 20260503071532 | 54 | 193 | 4.0 | 11.0 | 0.00 | 0.00 | 0.00 | 58 | 1006.1 |
| 20260503071032 | 54 | 190 | 5.0 | 11.0 | 0.00 | 0.00 | 0.00 | 58 | 1006.2 |
| 20260503070531 | 54 | 195 | 5.0 | 11.0 | 0.00 | 0.00 | 0.00 | 59 | 1006.2 |
| 20260503055027 | 57 | 186 | 5.0 | 9.0 | 0.00 | 0.00 | 0.00 | 49 | 1007.6 |
| 20260503054545 | 57 | 189 | 4.0 | 8.0 | 0.00 | 0.00 | 0.00 | 49 | 1007.5 |
| 20260503054026 | 57 | 182 | 2.0 | 8.0 | 0.00 | 0.00 | 0.00 | 49 | 1007.6 |
| 20260503053526 | 57 | 182 | 2.0 | 8.0 | 0.00 | 0.00 | 0.00 | 48 | 1007.7 |
| 20260503053036 | 57 | 184 | 2.0 | 8.0 | 0.00 | 0.00 | 0.00 | 48 | 1007.6 |
| 20260503052529 | 57 | 184 | 2.0 | 9.0 | 0.00 | 0.00 | 0.00 | 49 | 1007.7 |
| 20260503052025 | 57 | 182 | 3.0 | 9.0 | 0.00 | 0.00 | 0.00 | 49 | 1007.7 |
| 20260503051525 | 57 | 185 | 1.0 | 8.0 | 0.00 | 0.00 | 0.00 | 49 | 1007.8 |
| 20260503051024 | 57 | 184 | 3.0 | 8.0 | 0.00 | 0.00 | 0.00 | 49 | 1007.8 |
| 20260503050524 | 57 | 197 | 2.0 | 8.0 | 0.00 | 0.00 | 0.00 | 48 | 1007.8 |
| 20260503050023 | 58 | 194 | 3.0 | 8.0 | 0.00 | 0.00 | 0.00 | 48 | 1007.9 |
| 20260503045523 | 58 | 182 | 3.0 | 8.0 | 0.00 | 0.00 | 0.00 | 48 | 1007.9 |
| 20260503045022 | 58 | 179 | 3.0 | 8.0 | 0.00 | 0.00 | 0.00 | 48 | 1007.9 |
| 20260503044522 | 58 | 179 | 2.0 | 6.0 | 0.00 | 0.00 | 0.00 | 47 | 1008.0 |
| 20260503044021 | 58 | 180 | 2.0 | 6.0 | 0.00 | 0.00 | 0.00 | 47 | 1008.1 |
| 20260503043521 | 58 | 180 | 2.0 | 6.0 | 0.00 | 0.00 | 0.00 | 47 | 1008.3 |
| 20260503043025 | 59 | 186 | 2.0 | 7.0 | 0.00 | 0.00 | 0.00 | 47 | 1008.3 |
| 20260503042519 | 59 | 190 | 3.0 | 8.0 | 0.00 | 0.00 | 0.00 | 46 | 1008.4 |
| 20260503042020 | 59 | 190 | 4.0 | 8.0 | 0.00 | 0.00 | 0.00 | 46 | 1008.4 |
| 20260503041519 | 59 | 193 | 3.0 | 9.0 | 0.00 | 0.00 | 0.00 | 46 | 1008.5 |
| 20260503041018 | 59 | 207 | 3.0 | 9.0 | 0.00 | 0.00 | 0.00 | 45 | 1008.7 |
| 20260503040518 | 59 | 190 | 3.0 | 8.0 | 0.00 | 0.00 | 0.00 | 45 | 1008.7 |
| 20260503040030 | 59 | 190 | 4.0 | 7.0 | 0.00 | 0.00 | 0.00 | 45 | 1008.7 |
| 20260503035516 | 59 | 196 | 2.0 | 7.0 | 0.00 | 0.00 | 0.00 | 44 | 1008.8 |
| 20260503035016 | 60 | 195 | 1.0 | 8.0 | 0.00 | 0.00 | 0.00 | 45 | 1008.9 |
| 20260503034516 | 60 | 190 | 3.0 | 9.0 | 0.00 | 0.00 | 0.00 | 44 | 1009.0 |
| 20260503034015 | 60 | 182 | 4.0 | 9.0 | 0.00 | 0.00 | 0.00 | 44 | 1009.2 |
| 20260503033514 | 60 | 215 | 0.0 | 7.0 | 0.00 | 0.00 | 0.00 | 44 | 1009.3 |
| 20260503033013 | 60 | 217 | 3.0 | 7.0 | 0.00 | 0.00 | 0.00 | 44 | 1009.4 |
| 20260503032513 | 60 | 216 | 2.0 | 10.0 | 0.00 | 0.00 | 0.00 | 43 | 1009.5 |
| 20260503032013 | 60 | 216 | 3.0 | 10.0 | 0.00 | 0.00 | 0.00 | 43 | 1009.5 |
| 20260503031512 | 60 | 214 | 2.0 | 10.0 | 0.00 | 0.00 | 0.00 | 43 | 1009.6 |
| 20260503031012 | 60 | 246 | 3.0 | 7.0 | 0.00 | 0.00 | 0.00 | 43 | 1009.7 |
| 20260503030510 | 60 | 248 | 1.0 | 5.0 | 0.00 | 0.00 | 0.00 | 43 | 1009.8 |
| 20260503030010 | 61 | 248 | 1.0 | 4.0 | 0.00 | 0.00 | 0.00 | 43 | 1009.9 |
| 20260503025509 | 61 | 248 | 1.0 | 8.0 | 0.00 | 0.00 | 0.00 | 43 | 1010.0 |
| 20260503025008 | 61 | 247 | 4.0 | 12.0 | 0.00 | 0.00 | 0.00 | 43 | 1010.1 |
| 20260503024508 | 61 | 237 | 5.0 | 12.0 | 0.00 | 0.00 | 0.00 | 42 | 1010.3 |
| 20260503024008 | 61 | 225 | 5.0 | 13.0 | 0.00 | 0.00 | 0.00 | 41 | 1010.3 |
| 20260503023508 | 61 | 236 | 4.0 | 18.0 | 0.00 | 0.00 | 0.00 | 41 | 1010.3 |
| 20260503023007 | 61 | 240 | 7.0 | 17.0 | 0.00 | 0.00 | 0.00 | 41 | 1010.4 |
| 20260503022507 | 61 | 210 | 4.0 | 14.0 | 0.00 | 0.00 | 0.00 | 42 | 1010.3 |
| 20260503022011 | 61 | 207 | 5.0 | 14.0 | 0.00 | 0.00 | 0.00 | 42 | 1010.3 |
| 20260503021508 | 61 | 218 | 4.0 | 10.0 | 0.00 | 0.00 | 0.00 | 42 | 1010.4 |
| 20260503021008 | 61 | 232 | 2.0 | 10.0 | 0.00 | 0.00 | 0.00 | 42 | 1010.3 |
| 20260503020507 | 61 | 181 | 3.0 | 11.0 | 0.00 | 0.00 | 0.00 | 42 | 1010.2 |
| 20260503020007 | 61 | 230 | 4.0 | 11.0 | 0.00 | 0.00 | 0.00 | 42 | 1010.5 |
| 20260503015506 | 61 | 247 | 4.0 | 13.0 | 0.00 | 0.00 | 0.00 | 42 | 1010.4 |
| 20260503015006 | 61 | 242 | 6.0 | 13.0 | 0.00 | 0.00 | 0.00 | 42 | 1010.4 |
| 20260503014508 | 61 | 232 | 5.0 | 10.0 | 0.00 | 0.00 | 0.00 | 42 | 1010.4 |
| 20260503014007 | 61 | 203 | 4.0 | 7.0 | 0.00 | 0.00 | 0.00 | 43 | 1010.4 |
| 20260503013508 | 61 | 240 | 2.0 | 8.0 | 0.00 | 0.00 | 0.00 | 43 | 1010.4 |
| 20260503013006 | 61 | 230 | 3.0 | 10.0 | 0.00 | 0.00 | 0.00 | 42 | 1010.4 |
| 20260503012505 | 61 | 258 | 3.0 | 15.0 | 0.00 | 0.00 | 0.00 | 42 | 1010.5 |
| 20260503012006 | 61 | 258 | 3.0 | 15.0 | 0.00 | 0.00 | 0.00 | 43 | 1010.5 |
| 20260503011506 | 62 | 263 | 8.0 | 15.0 | 0.00 | 0.00 | 0.00 | 42 | 1010.6 |
| 20260503011005 | 62 | 253 | 2.0 | 8.0 | 0.00 | 0.00 | 0.00 | 42 | 1010.6 |
| 20260503010506 | 62 | 253 | 1.0 | 10.0 | 0.00 | 0.00 | 0.00 | 41 | 1010.5 |
| 20260503010004 | 62 | 288 | 5.0 | 15.0 | 0.00 | 0.00 | 0.00 | 41 | 1010.6 |
| 20260503005504 | 62 | 279 | 6.0 | 15.0 | 0.00 | 0.00 | 0.00 | 40 | 1010.5 |
| 20260503005005 | 62 | 232 | 7.0 | 14.0 | 0.00 | 0.00 | 0.00 | 40 | 1010.7 |
| 20260503004504 | 63 | 267 | 5.0 | 10.0 | 0.00 | 0.00 | 0.00 | 39 | 1010.6 |